Weather History for PAMR - January, 2014

Change the Weather History Date:

Thursday, January 16, 2014

  Actual Average (WUND) Record (WUND)
Temperature  
Mean Temperature 30 °F -  
Max Temperature 33 °F - - (-1)
Min Temperature 28 °F - - (-1)
Degree Days  
Heating Degree Days 34    
Moisture  
Dew Point 28 °F    
Average Humidity 88    
Maximum Humidity 93    
Minimum Humidity 82    
Precipitation  
Precipitation 0.15 in - - ()
Sea Level Pressure  
Sea Level Pressure 29.55 in    
Wind  
Wind Speed 3 mph (NNE)    
Max Wind Speed 9 mph    
Max Gust Speed -    
Visibility 4 miles    
Events Fog , Snow    
Averages and records for this station are not official NWS values.
T = Trace of Precipitation, MM = Missing Value Source: NWS Daily Summary

Daily Weather History Graph

Daily Weather History Graph

Search for Another Location

Airport or City:

Trip Planner

Search our weather history database for the weather conditions in past years. The results will help you decide how hot, cold, wet, or windy it might be!

Date:

Astronomy

Jan. 16, 2014 Rise Set
Actual Time 9:54 AM AKST 4:24 PM AKST
Civil Twilight 8:59 AM AKST 5:20 PM AKST
Nautical Twilight 8:02 AM AKST 6:16 PM AKST
Astronomical Twilight 7:10 AM AKST 7:08 PM AKST
Moon 6:00 PM AKST (1/16) 9:22 AM AKST (1/16)
Length of Visible Light 8h 21m
Length of Day
6h 29m
Full, 100% of the Moon is Illuminated
Jan 16
Full
Jan 23
Last Quarter
Jan 30
New
Feb 6
First Quarter
Feb 14
Full

Hourly Weather History & Observations

Time (AKST) Temp. Windchill Dew Point Humidity Pressure Visibility Wind Dir Wind Speed Gust Speed Precip Events Conditions
12:53 AM 28.9 °F 20.4 °F 25.0 °F 85% 29.57 in 10.0 mi NNW 9.2 mph - N/A   Overcast
1:53 AM 30.0 °F - 25.0 °F 82% 29.55 in 10.0 mi Calm Calm - N/A   Overcast
3:53 AM 28.9 °F - 25.0 °F 85% 29.44 in 10.0 mi Calm Calm - N/A   Overcast
4:18 AM 28.4 °F - 24.8 °F 86% 29.42 in 10.0 mi Calm Calm - N/A   Overcast
4:46 AM 28.4 °F - 26.6 °F 93% 29.41 in 10.0 mi Calm Calm - N/A   Overcast
4:53 AM 30.0 °F - 26.1 °F 85% 29.42 in 10.0 mi Calm Calm - N/A   Overcast
5:53 AM 30.9 °F - 26.1 °F 82% 29.42 in 3.0 mi Calm Calm - 0.00 in Snow Light Snow
6:11 AM 30.2 °F 26.7 °F 26.6 °F 86% 29.41 in 2.0 mi North 3.5 mph - 0.00 in Snow Light Snow
6:46 AM 30.2 °F - 26.6 °F 86% 29.42 in 1.0 mi Calm Calm - 0.04 in Snow Light Snow
6:53 AM 30.0 °F 26.5 °F 27.0 °F 88% 29.43 in 0.8 mi East 3.5 mph - 0.05 in Snow Light Snow
7:48 AM 30.2 °F 24.3 °F 28.4 °F 93% 29.40 in 0.8 mi ENE 5.8 mph - 0.08 in Snow Light Snow
7:53 AM 30.9 °F 25.2 °F 28.0 °F 89% 29.39 in 0.8 mi NE 5.8 mph - 0.09 in Snow Light Snow
8:22 AM 30.2 °F 25.4 °F 28.4 °F 93% 29.38 in 4.0 mi North 4.6 mph - 0.01 in Snow Light Snow
8:53 AM 30.9 °F 23.5 °F 27.0 °F 85% 29.39 in 9.0 mi NNW 8.1 mph - 0.01 in Snow Light Snow
9:53 AM 32.0 °F - 28.0 °F 85% 29.48 in 9.0 mi Calm Calm - 0.00 in Snow Light Snow
10:18 AM 32.0 °F - 28.4 °F 87% 29.50 in 5.0 mi Calm Calm - 0.00 in Snow Light Snow
10:40 AM 32.0 °F - 28.4 °F 87% 29.54 in 1.0 mi Calm Calm - 0.00 in Snow Light Snow
10:53 AM 32.0 °F 27.5 °F 28.0 °F 85% 29.53 in 0.1 mi NNW 4.6 mph - 0.00 in Fog Fog
11:20 AM 32.0 °F - 28.4 °F 87% 29.54 in 0.5 mi Calm Calm - N/A Fog Fog
11:53 AM 32.0 °F - 28.9 °F 88% 29.55 in 0.2 mi Calm Calm - N/A Fog Fog
12:53 PM 32.0 °F 28.7 °F 28.9 °F 88% 29.57 in 1.5 mi ENE 3.5 mph - N/A Fog Fog
1:53 PM 33.1 °F - 30.0 °F 89% 29.61 in 1.2 mi Calm Calm - N/A   Overcast
2:53 PM 32.0 °F - 28.9 °F 88% 29.62 in 1.5 mi Calm Calm - N/A   Overcast
3:53 PM 33.1 °F - 28.9 °F 85% 29.65 in 1.5 mi Calm Calm - N/A   Overcast
4:53 PM 33.1 °F - 30.0 °F 89% 29.68 in 1.0 mi Calm Calm - N/A   Overcast
5:00 PM 33.8 °F - 30.2 °F 87% 29.68 in 1.0 mi Calm Calm - N/A   Overcast
5:36 PM 32.0 °F 28.7 °F 28.4 °F 87% 29.70 in 0.2 mi NNE 3.5 mph - N/A Fog Fog
5:53 PM 30.9 °F 27.5 °F 28.0 °F 89% 29.70 in 0.2 mi NNW 3.5 mph - N/A Fog Light Freezing Fog
6:53 PM 30.9 °F 27.5 °F 28.0 °F 89% 29.70 in 0.2 mi North 3.5 mph - N/A Fog Light Freezing Fog
7:53 PM 30.9 °F 27.5 °F 28.0 °F 89% 29.72 in 0.2 mi NNW 3.5 mph - N/A Fog Light Freezing Fog
8:53 PM 30.9 °F - 28.9 °F 92% 29.71 in 0.8 mi Calm Calm - N/A   Mist
9:53 PM 30.9 °F - 28.9 °F 92% 29.69 in 0.8 mi Calm Calm - N/A   Mist
10:53 PM 30.9 °F - 28.0 °F 89% 29.68 in 0.5 mi Calm Calm - N/A Fog Light Freezing Fog
11:15 PM 30.2 °F - 28.4 °F 93% 29.67 in 1.8 mi Calm Calm - N/A   Overcast
11:22 PM 32.0 °F 27.5 °F 28.4 °F 87% 29.65 in 3.0 mi NNE 4.6 mph - N/A   Overcast
11:36 PM 32.0 °F 27.5 °F 28.4 °F 87% 29.66 in 9.0 mi NE 4.6 mph - N/A   Overcast
11:53 PM 32.0 °F 26.4 °F 28.9 °F 88% 29.65 in 10.0 mi North 5.8 mph - N/A   Overcast